DELTA 1 DEB, 7198

Orbit data source: Space-Track

DELTA 1 DEB, 7198 is space debris in SSO originally from a launch on Tue, 06 Nov 1973 UTC launched from the Air Force Western Test Range (AFWTR). Debris objects in space refer to the collection of defunct objects orbiting the Earth. Examples of debris include non-operational satellites, rocket bodies, and fragments generated from explosions, collisions, or faulty payload assembly.

Loading next visibility...
Identifier
7198, 1973-086FG
Orbit
SSO
Country
Flag of USUS
Related business
Manufacturer
Unknown
Mission
Spacecraft
Bus & Motor
Unknown
Mass
Unknown
Launch date (UTC)
1973-11-06 (52 years ago)
Launch vehicle
Unknown
Launch site
Air Force Western Test Range (AFWTR)
Object type
Payload
Rocket body
Debris
Shape & HBR
Unknown shape, 0.1 m
Radar Cross Section
Small (<0.1 m²)

Expand to show TLE details & history
Last TLE update: 19 hours ago

TLE from 19 hours ago
0 DELTA 1 DEB
1  7198U 73086FG  25353.38569566  .00000726  00000-0  28861-2 0  9997
2  7198 102.3275 285.1064 0135580 166.1769 316.7221 12.89386579435542
Epoch: 2025-12-19T09:15Z
TLE epoch observation values (Epoch: 2025-12-19T09:15:24.105Z)
Latitude
56.20769°
Longitude
-103.01251°
Altitude
1,237.956 km
Speed
7.276 km/s
True Right ascension
08h 16m 15s
True Declination
56° 03' 31"
Sunlit
Object was in full shadow at epoch
Visualization orbit readout
Latitude
Unknown
Longitude
Unknown
Altitude
Unknown
Speed
Unknown
Apparent Right ascension
Unknown
Apparent Declination
Unknown
Sunlit
N/A
Visualization observer readout
Local Sidereal Time
03:36:48
Azimuth
Unknown
Elevation
Unknown
Doppler factor
Unknown
Orbital elements
Apogee altitude
1,405.61 km
Perigee altitude
1,197.369 km
Semi-major axis
7,679.626 km
Eccentricity
0.01356
Inclination
102.3275°
RAAN
285.1064°
Arg. of periapsis
166.1769°
True anomaly
315.64379°
Mean anomaly
316.7221°
Eccentric anomaly
316.18428°
Mean motion
3.22502 °/min
Orbital period
111.63 mins
BSTAR
0.0028861
Loading maneuver chart data...
Computing Atmospheric mass density...
Loading historical data...
Loading historical data...
Loading historical data...
Loading historical data...
Loading historical data...
Loading historical data...
Loading historical data...

Documentation

Showing up to 5 results
|